Location: Skymont Scout Reservation
(35.4344°N, 85.8742°W)
Time: 04:44:52
(UTC-05:00)

ISS - All Passes

Search period start: 20 October 2014 00:00
Search period end: 30 October 2014 00:00
Orbit: 413 x 416 km, 51.6° (Epoch: 19 October)

Date Brightness Start Highest point End Pass type
(mag) Time Alt. Az. Time Alt. Az. Time Alt. Az.
20 Oct - 13:48:08 10° SSW 13:51:22 52° SE 13:54:38 10° ENE daylight
20 Oct - 15:25:58 10° WNW 15:28:17 17° NNW 15:30:36 10° NNE daylight
20 Oct - 20:19:45 10° NNW 20:22:18 20° NNE 20:24:50 10° E visible
20 Oct - 21:55:57 10° WNW 21:59:07 41° SW 22:02:16 10° SSE night (unlit)
21 Oct - 12:59:39 10° S 13:02:29 26° SE 13:05:20 10° ENE daylight
21 Oct - 14:36:15 10° W 14:39:08 27° NW 14:42:02 10° NNE daylight
21 Oct - 19:31:19 10° N 19:33:05 14° NNE 19:34:51 10° ENE visible
21 Oct - 21:06:50 10° NW 21:10:11 85° SW 21:13:30 10° SE visible
22 Oct - 12:11:50 10° SSE 12:13:38 14° SE 12:15:27 10° E daylight
22 Oct - 13:46:49 10° WSW 13:50:01 46° NW 13:53:15 10° NE daylight
22 Oct - 20:17:53 10° NW 20:21:09 49° NE 20:24:23 10° ESE visible
22 Oct - 21:55:53 10° W 21:57:30 13° SW 21:59:07 10° SSW night (unlit)
23 Oct - 12:57:38 10° SW 13:00:58 89° NW 13:04:18 10° NE daylight
23 Oct - 14:36:26 10° NW 14:38:05 13° NNW 14:39:43 10° N daylight
23 Oct - 19:29:04 10° NNW 19:32:00 28° NE 19:34:56 10° E visible
23 Oct - 21:05:51 10° WNW 21:08:37 24° SW 21:11:23 10° S visible
24 Oct - 12:08:46 10° SSW 12:11:56 44° SE 12:15:08 10° ENE daylight
24 Oct - 13:46:19 10° WNW 13:48:47 19° NNW 13:51:15 10° NNE daylight
24 Oct - 18:40:22 10° NNW 18:42:46 18° NNE 18:45:09 10° ENE visible
24 Oct - 20:16:25 10° WNW 20:19:39 48° SW 20:22:51 10° SSE visible
25 Oct - 11:20:17 10° S 11:22:57 23° SE 11:25:38 10° ENE daylight
25 Oct - 12:56:33 10° W 12:59:32 30° NW 13:02:31 10° NNE daylight
25 Oct - 17:51:55 10° N 17:53:25 12° NNE 17:54:55 10° NE daylight
25 Oct - 19:27:14 10° NW 19:30:34 82° NE 19:33:53 10° SE visible
26 Oct - 10:32:40 10° SSE 10:34:00 12° SE 10:35:19 10° ESE daylight
26 Oct - 12:07:04 10° WSW 12:10:19 53° NW 12:13:35 10° NE daylight
26 Oct - 18:38:12 10° NW 18:41:24 42° NE 18:44:35 10° ESE visible
26 Oct - 20:15:48 10° W 20:17:48 15° SW 20:19:49 10° SSW visible
27 Oct - 11:17:50 10° SW 11:21:09 77° SE 11:24:28 10° NE daylight
27 Oct - 12:56:19 10° WNW 12:58:11 14° NNW 13:00:04 10° N daylight
27 Oct - 17:49:17 10° NNW 17:52:07 25° NNE 17:54:56 10° E daylight
27 Oct - 19:25:52 10° WNW 19:28:47 29° SW 19:31:42 10° SSE visible
28 Oct - 10:28:56 10° SSW 10:32:01 37° SE 10:35:07 10° ENE daylight
28 Oct - 12:06:11 10° W 12:08:47 21° NNW 12:11:24 10° NNE daylight
28 Oct - 17:00:32 10° NNW 17:02:44 16° NNE 17:04:56 10° ENE daylight
28 Oct - 18:36:23 10° NW 18:39:40 58° SW 18:42:56 10° SE visible
29 Oct - 09:40:29 10° S 09:42:56 19° SE 09:45:23 10° E daylight
29 Oct - 11:16:22 10° WSW 11:19:26 34° NW 11:22:30 10° NNE daylight
29 Oct - 16:12:06 10° N 16:13:15 11° NNE 16:14:24 10° NE daylight
29 Oct - 17:47:08 10° NW 17:50:28 69° NE 17:53:46 10° SE daylight
